Simultaneous Nadir Overpasses (SNOs) Predictions

Prediction of SNOs between NOAA-20 and LANDSAT-8 Satellite Orbit:

Table of predicted SNOs for the next 14.0 days since TLE Epoch: 4/6/2024
Index Date (NOAA-20) Time (NOAA-20) Lat,Lon (NOAA-20) SZA (NOAA-20 ) Date (LANDSAT-8) Time (LANDSAT-8) Lat,Lon (LANDSAT-8) SZA (LANDSAT-8 ) Distance(km) Time Diff (sec)
1 04/06/2024 14:28:30 70.24, -40.83 63.41 04/06/2024 14:29:07 70.25, -40.82 63.41 1.33 37
2 04/06/2024 15:19:12 -70.14, 126.63 116.71 04/06/2024 15:18:37 -70.13, 126.65 116.72 1.33 35
3 04/09/2024 05:54:56 -70.41, -92.71 117.41 04/09/2024 05:56:07 -70.37, -92.40 117.47 12.09 71
4 04/09/2024 06:45:38 70.18, 74.96 62.34 04/09/2024 06:45:36 70.16, 74.93 62.32 2.60 2
5 04/09/2024 07:36:19 -70.03,-117.49 117.84 04/09/2024 07:35:06 -70.05,-117.59 117.81 4.48 73
6 04/11/2024 22:12:03 -70.25, 23.25 118.57 04/11/2024 22:12:37 -70.26, 23.32 118.56 3.16 34
7 04/11/2024 23:02:47 70.13,-169.26 61.30 04/11/2024 23:02:05 70.10,-169.27 61.27 3.09 42
8 04/14/2024 13:38:30 70.31, -28.46 60.54 04/14/2024 13:39:36 70.29, -28.40 60.51 2.99 66
9 04/14/2024 14:29:12 -70.20, 139.02 119.59 04/14/2024 14:29:06 -70.19, 139.08 119.61 2.60 6
10 04/14/2024 15:19:49 69.71, -52.93 59.90 04/14/2024 15:18:38 69.80, -53.82 60.01 35.32 71
11 04/17/2024 05:55:38 70.22, 87.38 59.49 04/17/2024 05:56:05 70.19, 87.34 59.46 3.37 27
12 04/17/2024 06:46:20 -70.10,-105.13 120.64 04/17/2024 06:45:35 -70.09,-105.18 120.65 2.37 45
13 04/19/2024 21:22:02 -70.29, 35.66 121.35 04/19/2024 21:23:04 -70.30, 35.72 121.36 2.51 62
14 04/19/2024 22:12:46 70.19,-156.87 58.53 04/19/2024 22:12:31 70.18,-156.80 58.52 2.68 15
15 04/19/2024 23:03:19 -69.59, 11.33 122.10 04/19/2024 23:02:09 -69.64, 10.08 122.02 48.84 70



Historial Predications of SNOs between NOAA-20 and LANDSAT-8
